Location: Hilton Head Island
(32.2163°N, 80.7526°W)
Time: 16:31:05
(UTC-05:00)

Tiros 1 despin weight - Visible Passes

Search period start: 18 February 2026 00:00
Search period end: 28 February 2026 00:00
Orbit: 557 x 594 km, 48.2° (Epoch: 16 February)

Date Brightness Start Highest point End Pass type
(mag) Time Alt. Az. Time Alt. Az. Time Alt. Az.
18 Feb ? 20:19:00 10° NNW 20:20:09 16° NNW 20:20:09 16° NNW visible
19 Feb ? 18:42:10 10° N 18:43:38 12° NNE 18:45:07 10° NE visible
19 Feb ? 20:21:14 10° NW 20:22:47 20° NNW 20:22:47 20° NNW visible
20 Feb ? 18:44:06 10° NNW 18:46:28 14° NNE 18:48:49 10° NE visible
20 Feb ? 20:23:33 10° NW 20:25:29 26° NW 20:25:29 26° NW visible
21 Feb ? 18:46:11 10° NNW 18:49:13 19° NNE 18:52:06 11° ENE visible
21 Feb ? 20:25:58 10° NW 20:28:18 32° NW 20:28:18 32° NW visible
22 Feb ? 18:48:20 10° NNW 18:51:53 26° NNE 18:55:01 12° E visible
22 Feb ? 20:28:33 10° WNW 20:31:13 34° W 20:31:13 34° W visible
23 Feb ? 18:50:33 10° NW 18:54:29 38° NNE 18:58:05 12° E visible
23 Feb ? 20:31:21 10° WNW 20:34:18 26° WSW 20:34:18 26° WSW visible
24 Feb ? 18:52:51 10° NW 18:57:00 61° NE 19:01:10 10° ESE visible
24 Feb ? 20:34:35 10° W 20:37:13 16° SW 20:37:33 16° SW visible
25 Feb ? 18:55:15 10° NW 18:59:27 80° SW 19:03:39 10° SE visible
26 Feb ? 18:57:48 10° WNW 19:01:49 46° SW 19:05:50 10° SSE visible
27 Feb ? 19:00:36 10° WNW 19:04:07 26° SW 19:07:39 10° S visible
